1505732400.86,54342,15.69,73664.0,13.71,-3.07,-3.55,0,*4A
1505732402.1,54343,15.69,73666.0,13.75,-3.63,-3.51,0,*49
1505732403.32,54344,15.69,73666.5,13.79,-4.89,-4.25,0,*45
1505732404.56,54345,15.69,73664.3,13.85,-4.53,-3.43,0,*47
1505732405.77,54346,15.69,73664.3,13.87,-4.89,-3.23,0,*47
1505732406.98,54347,15.69,73664.8,13.89,-6.05,-3.43,0,*48
1505732408.18,54348,15.69,73664.3,13.93,-7.23,-3.95,0,*42
1505732409.45,54349,15.69,73664.3,13.91,-7.27,-4.01,0,*4F
1505732410.67,54350,15.69,73666.5,13.93,-7.31,-4.57,0,*41
1505732411.92,54351,15.69,73664.5,13.93,-7.31,-5.61,0,*44
1505732413.12,54352,15.69,73662.5,13.93,-6.39,-5.47,0,*4A
1505732414.32,54353,15.69,73662.0,13.93,-4.29,-4.29,0,*41
1505732415.56,54354,15.69,73666.5,13.99,-3.71,-3.95,0,*46
1505732416.79,54355,15.69,73664.5,14.01,-3.71,-3.67,0,*4C
1505732417.99,54356,15.69,73666.0,14.05,-4.57,-4.05,0,*4B
1505732419.2,54357,15.69,73664.3,14.11,-4.09,-3.35,0,*40
1505732420.39,54358,15.69,73664.8,14.13,-4.33,-2.91,0,*4B
1505732421.63,54359,15.69,73660.8,14.15,-5.85,-3.83,0,*42
1505732422.87,54360,15.69,73662.8,14.17,-5.69,-3.51,0,*47
1505732424.1,54361,15.69,73666.5,14.21,-6.59,-4.37,0,*44
1505732425.33,54362,15.69,73666.5,14.21,-7.53,-5.51,0,*4D
1505732426.57,54363,15.69,73666.3,14.23,-7.05,-5.11,0,*49
1505732427.82,54364,15.69,73666.3,14.25,-5.11,-4.25,0,*49
1505732429.03,54365,15.69,73660.8,14.27,-4.05,-3.63,0,*4B
1505732430.23,54366,15.69,73662.5,14.27,-3.35,-3.15,0,*4D
1505732431.45,54367,15.69,73660.0,14.33,-3.19,-3.27,0,*46
1505732432.67,54368,15.69,73660.0,14.35,-3.71,-4.57,0,*41
1505732433.9,54369,15.69,73660.0,14.35,-4.05,-5.23,0,*46
1505732435.09,54370,15.69,73664.5,14.35,-3.15,-4.33,0,*48
1505732436.29,54371,15.69,73662.5,14.39,-2.99,-4.49,0,*4D
1505732437.53,54372,15.69,73664.3,14.41,-3.59,-5.39,0,*4A
1505732438.8,54373,15.69,73666.3,14.45,-3.63,-5.65,0,*4F
1505732440.02,54374,15.69,73666.5,14.45,-4.09,-6.13,0,*41
1505732441.23,54375,15.69,73664.3,14.47,-5.43,-7.61,0,*49
1505732442.47,54376,15.69,73664.5,14.49,-5.73,-8.71,0,*49
1505732443.71,54377,15.69,73664.0,14.47,-5.85,-9.57,0,*4A
1505732444.93,54378,15.69,73664.8,14.49,-8.25,-13.43,0,*72
1505732446.15,54379,15.69,73670.5,14.47,-7.61,-13.23,0,*74
1505732447.39,54380,15.69,73664.8,14.47,-7.95,-13.83,0,*73
1505732448.59,54381,15.69,73664.0,14.47,-9.75,-15.71,0,*79
1505732449.81,54382,15.69,73666.8,14.49,-12.03,-18.45,0,*45
1505732451.07,54383,15.69,73664.5,14.49,-12.03,-18.35,0,*43
1505732452.29,54384,15.69,73666.5,14.47,-15.43,-21.63,0,*40
1505732453.51,54385,15.69,73664.3,14.43,-15.25,-20.89,0,*40
1505732454.74,54386,15.69,73662.8,14.43,-15.71,-21.03,0,*41
1505732455.96,54387,15.69,73664.0,14.39,-15.53,-20.79,0,*41
1505732457.2,54388,15.69,73664.0,14.39,-16.03,-21.27,0,*42
1505732458.43,54389,15.69,73664.8,14.37,-15.11,-20.69,0,*46
1505732459.7,54390,15.69,73666.5,14.37,-15.81,-21.57,0,*4B
1505732460.94,54391,15.69,73664.8,14.35,-16.13,-21.93,0,*48
1505732462.19,54392,15.69,73664.0,14.33,-15.63,-22.73,0,*44
1505732463.43,54393,15.69,73670.3,14.31,-16.09,-22.97,0,*42
1505732464.69,54394,15.69,73666.8,14.25,-17.93,-24.61,0,*4D
1505732465.95,54395,15.69,73670.0,14.21,-18.25,-24.71,0,*4B
1505732467.23,54396,15.69,73668.0,14.21,-17.55,-23.65,0,*42
1505732468.51,54397,15.69,73662.8,14.19,-16.69,-22.77,0,*44
1505732469.76,54398,15.69,73666.3,14.19,-16.69,-23.43,0,*4D
1505732471.03,54399,15.69,73668.3,14.19,-14.93,-22.31,0,*4F
1505732472.29,54400,15.69,73666.0,14.13,-17.21,-26.29,0,*45
1505732473.56,54401,15.69,73670.3,14.11,-17.63,-26.33,0,*4B
1505732474.81,54402,15.69,73668.0,14.09,-16.51,-24.41,0,*46
1505732476.07,54403,15.69,73668.5,14.03,-17.17,-25.65,0,*49
1505732477.28,54404,15.69,73670.3,14.01,-18.83,-26.65,0,*4D
1505732478.56,54405,15.69,73664.5,13.99,-19.23,-26.71,0,*44
1505732479.83,54406,15.69,73668.0,13.95,-20.15,-27.39,0,*49
1505732481.1,54407,15.69,73670.8,13.95,-19.71,-26.77,0,*4B
1505732482.38,54408,15.69,73668.3,13.91,-21.33,-27.83,0,*47
1505732483.61,54409,15.69,73664.3,13.85,-19.99,-26.07,0,*45
1505732484.87,54410,15.69,73670.5,13.85,-16.83,-23.49,0,*46
1505732486.12,54411,15.69,73670.8,13.85,-18.17,-24.15,0,*4A
1505732487.41,54412,15.69,73668.3,13.81,-19.61,-24.71,0,*4F
1505732488.66,54413,15.69,73666.3,13.81,-19.91,-24.41,0,*42
1505732489.89,54414,15.69,73670.3,13.79,-21.03,-25.87,0,*49
1505732491.15,54415,15.69,73670.0,13.77,-21.97,-26.39,0,*4D
1505732492.38,54416,15.69,73668.5,13.75,-22.63,-26.93,0,*44
1505732493.62,54417,15.69,73664.0,13.73,-21.73,-25.91,0,*40
1505732494.89,54418,15.69,73668.8,13.69,-23.53,-28.31,0,*43
1505732496.17,54419,15.69,73668.5,13.65,-23.19,-26.97,0,*42
1505732497.4,54420,15.69,73670.0,13.65,-23.13,-27.13,0,*4F
1505732498.64,54421,15.69,73666.8,13.59,-24.35,-28.21,0,*4C
1505732499.9,54422,15.69,73666.0,13.55,-23.75,-27.39,0,*46
1505732501.13,54423,15.69,73664.8,13.53,-23.89,-27.19,0,*40
1505732502.39,54424,15.69,73664.5,13.49,-23.49,-26.33,0,*49
1505732503.59,54425,15.69,73664.5,13.49,-22.83,-25.23,0,*4D
1505732504.84,54426,15.69,73664.5,13.47,-22.57,-24.67,0,*48
1505732506.1,54427,15.69,73666.8,13.47,-24.05,-25.81,0,*41
1505732507.35,54428,15.69,73664.0,13.43,-25.75,-27.55,0,*47
1505732508.55,54429,15.69,73666.8,13.37,-24.93,-26.39,0,*47
1505732509.83,54430,15.69,73662.8,13.35,-24.11,-24.87,0,*40
1505732511.03,54431,15.69,73662.8,13.33,-23.79,-24.57,0,*43
1505732512.29,54432,15.69,73666.8,13.31,-24.11,-24.57,0,*4B
1505732513.54,54433,15.69,73662.5,13.31,-24.87,-24.97,0,*49
1505732514.75,54434,15.69,73662.8,13.29,-24.61,-24.51,0,*45
1505732515.97,54435,15.69,73664.0,13.29,-25.45,-24.97,0,*49
1505732517.24,54436,15.69,73662.0,13.27,-24.21,-23.43,0,*49
1505732518.47,54437,15.69,73666.3,13.25,-24.47,-23.49,0,*40
1505732519.71,54438,15.69,73662.8,13.25,-24.57,-23.33,0,*43
1505732520.98,54439,15.69,73662.3,13.27,-23.53,-21.97,0,*4F
1505732522.19,54440,15.69,73662.0,13.23,-22.67,-20.93,0,*46
1505732523.4,54441,15.69,73660.8,13.25,-22.37,-20.63,0,*4B
1505732524.65,54442,15.69,73660.3,13.27,-21.23,-19.47,0,*40
1505732525.9,54443,15.69,73664.3,13.27,-22.03,-20.83,0,*42
1505732527.14,54444,15.69,73662.5,13.27,-21.77,-20.39,0,*44
1505732528.42,54445,15.69,73662.5,13.31,-21.57,-19.85,0,*4D
1505732529.63,54446,15.69,73658.8,13.29,-23.09,-20.69,0,*46
1505732530.88,54447,15.69,73662.0,13.31,-22.03,-19.27,0,*45
1505732532.14,54448,15.69,73662.5,13.31,-22.17,-19.07,0,*4D
1505732533.36,54449,15.69,73662.3,13.33,-23.49,-20.05,0,*4C
1505732534.6,54450,15.69,73660.3,13.33,-23.43,-19.85,0,*4C
1505732535.82,54451,15.75,73664.5,13.33,-23.59,-19.85,0,*46
1505732537.08,54452,15.69,73662.5,13.33,-22.31,-18.31,0,*44
1505732538.29,54453,15.69,73662.5,13.33,-22.53,-18.73,0,*47
1505732539.53,54454,15.69,73660.5,13.35,-22.73,-18.83,0,*4B
1505732540.77,54455,15.69,73664.8,13.33,-24.47,-20.99,0,*4D
1505732542.0,54456,15.69,73664.3,13.33,-23.43,-20.19,0,*45
1505732543.23,54457,15.69,73664.5,13.33,-21.73,-18.35,0,*40
1505732544.44,54458,15.69,73664.8,13.33,-22.53,-19.13,0,*4B
1505732545.64,54459,15.69,73660.3,13.33,-22.83,-19.51,0,*41
1505732546.89,54460,15.69,73664.8,13.33,-22.21,-18.59,0,*4A
1505732548.14,54461,15.69,73664.0,13.35,-21.67,-17.69,0,*40
1505732549.34,54462,15.69,73662.8,13.33,-22.37,-18.17,0,*45
1505732550.6,54463,15.69,73664.0,13.35,-22.77,-18.11,0,*40
1505732551.88,54464,15.69,73662.3,13.35,-22.17,-17.21,0,*4D
1505732553.14,54465,15.69,73660.0,13.35,-21.87,-16.97,0,*4A
1505732554.39,54466,15.69,73662.0,13.41,-20.99,-16.13,0,*48
1505732555.59,54467,15.69,73660.3,13.41,-21.43,-16.03,0,*4E
1505732556.83,54468,15.75,73664.8,13.41,-21.93,-16.31,0,*4D
1505732558.06,54469,15.69,73660.3,13.45,-21.57,-15.75,0,*43
1505732559.26,54470,15.75,73664.0,13.49,-21.47,-15.67,0,*45
1505732560.54,54471,15.69,73662.3,13.47,-22.17,-16.31,0,*4C
1505732561.79,54472,15.69,73662.5,13.47,-20.69,-14.75,0,*46
1505732563.0,54473,15.75,73666.0,13.49,-20.89,-15.11,0,*44
1505732564.22,54474,15.69,73662.8,13.51,-20.63,-15.15,0,*4A
1505732565.43,54475,15.69,73662.8,13.53,-19.51,-14.23,0,*46
1505732566.71,54476,15.69,73660.8,13.55,-19.85,-14.05,0,*4E
1505732567.94,54477,15.69,73662.0,13.57,-20.39,-14.29,0,*4E
1505732569.18,54478,15.75,73664.3,13.59,-20.59,-14.55,0,*42
1505732570.41,54479,15.69,73662.5,13.63,-20.79,-14.65,0,*4B
1505732571.66,54480,15.69,73660.0,13.65,-20.35,-14.11,0,*40
1505732572.91,54481,15.69,73664.0,13.65,-20.49,-14.11,0,*4A
1505732574.14,54482,15.69,73662.5,13.69,-19.91,-13.55,0,*4D
1505732575.36,54483,15.69,73664.8,13.69,-20.09,-13.69,0,*48
1505732576.58,54484,15.69,73662.8,13.71,-21.77,-15.29,0,*4C
1505732577.84,54485,15.75,73664.0,13.73,-22.03,-15.39,0,*4E
1505732579.08,54486,15.69,73660.5,13.71,-23.75,-17.07,0,*40
1505732580.32,54487,15.69,73662.5,13.71,-24.51,-17.63,0,*42
1505732581.6,54488,15.69,73660.3,13.69,-23.99,-17.17,0,*44
1505732582.84,54489,15.69,73660.8,13.67,-23.13,-16.23,0,*4F
1505732584.03,54490,15.75,73664.0,13.67,-23.39,-16.45,0,*4F
1505732585.29,54491,15.69,73660.0,13.65,-23.95,-16.89,0,*4A
1505732586.5,54492,15.69,73662.3,13.59,-23.13,-15.99,0,*4A
1505732587.73,54493,15.69,73660.0,13.63,-23.33,-16.37,0,*47
1505732588.96,54494,15.75,73666.3,13.59,-23.49,-16.41,0,*45
1505732590.19,54495,15.69,73660.3,13.59,-23.03,-16.03,0,*4C
1505732591.43,54496,15.69,73662.0,13.59,-23.49,-16.55,0,*42
1505732592.65,54497,15.69,73662.5,13.55,-22.03,-15.15,0,*47
1505732593.9,54498,15.69,73662.5,13.55,-20.79,-13.93,0,*4F
1505732595.18,54499,15.69,73666.0,13.57,-19.85,-13.01,0,*4E
1505732596.38,54500,15.69,73662.5,13.59,-20.25,-13.55,0,*40
1505732597.61,54501,15.75,73664.0,13.59,-21.83,-14.69,0,*44
1505732598.81,54502,15.69,73664.3,13.63,-19.91,-13.23,0,*4F
1505732600.04,54503,15.69,73660.0,13.63,-20.05,-13.37,0,*4C
1505732601.26,54504,15.69,73662.0,13.63,-20.79,-13.93,0,*4E
1505732602.49,54505,15.69,73662.5,13.63,-19.47,-12.79,0,*4D
1505732603.75,54506,15.69,73662.5,13.67,-18.89,-12.15,0,*43
1505732604.98,54507,15.75,73664.5,13.69,-19.03,-12.25,0,*4C
1505732606.24,54508,15.69,73666.0,13.73,-18.65,-11.85,0,*40
1505732607.52,54509,15.69,73664.3,13.73,-19.41,-12.65,0,*4B
1505732608.79,54510,15.69,73662.8,13.73,-18.99,-12.35,0,*42
1505732610.02,54511,15.69,73664.5,13.75,-18.25,-11.81,0,*4E
1505732611.28,54512,15.69,73664.8,13.77,-18.65,-12.35,0,*47
1505732612.52,54513,15.69,73664.0,13.77,-19.81,-13.47,0,*49
1505732613.79,54514,15.69,73666.5,13.77,-22.17,-16.03,0,*4C
1505732615.05,54515,15.69,73668.0,13.75,-23.95,-17.59,0,*4A
1505732616.31,54516,15.69,73664.8,13.69,-21.83,-15.15,0,*4B
1505732617.59,54517,15.69,73664.5,13.69,-18.89,-12.83,0,*42
1505732618.82,54518,15.69,73664.0,13.69,-20.73,-14.61,0,*49
1505732620.07,54519,15.69,73664.0,13.69,-20.73,-14.75,0,*4D
1505732621.36,54520,15.75,73666.0,13.69,-21.33,-15.39,0,*4B
1505732622.59,54521,15.75,73664.0,13.65,-20.69,-14.69,0,*4C
1505732623.88,54522,15.69,73666.0,13.65,-19.27,-13.37,0,*43
1505732625.14,54523,15.75,73666.5,13.65,-16.55,-10.71,0,*49
1505732626.4,54524,15.69,73662.3,13.67,-15.89,-9.83,0,*7B
1505732627.65,54525,15.69,73664.3,13.69,-15.85,-9.89,0,*72
1505732628.89,54526,15.69,73660.0,13.71,-15.89,-10.01,0,*4C
1505732630.1,54527,15.75,73662.8,13.75,-14.15,-8.75,0,*77
1505732631.32,54528,15.69,73666.3,13.75,-13.19,-7.95,0,*72
1505732632.58,54529,15.69,73664.0,13.81,-12.11,-7.11,0,*7D
1505732633.81,54530,15.75,73666.3,13.87,-11.23,-5.85,0,*7E
1505732635.03,54531,15.75,73666.8,13.89,-9.67,-5.69,0,*4A
1505732636.26,54532,15.75,73666.5,13.93,-9.19,-5.19,0,*4C
1505732637.49,54533,15.75,73666.5,13.97,-8.93,-5.15,0,*46
1505732638.71,54534,15.75,73666.0,13.97,-7.99,-4.37,0,*45
1505732639.92,54535,15.69,73662.0,14.03,-8.25,-4.45,0,*43
1505732641.12,54536,15.69,73662.0,14.05,-8.75,-4.57,0,*40
1505732642.34,54537,15.75,73666.8,14.05,-8.51,-4.25,0,*42
1505732643.56,54538,15.75,73666.0,14.11,-8.45,-3.95,0,*41
1505732644.75,54539,15.75,73664.5,14.17,-8.59,-4.05,0,*45
1505732645.99,54540,15.69,73662.3,14.19,-9.71,-4.89,0,*4A
1505732647.22,54541,15.75,73664.0,14.21,-8.85,-3.87,0,*43
1505732648.44,54542,15.75,73664.3,14.25,-8.33,-3.27,0,*43
1505732649.64,54543,15.69,73664.5,14.31,-8.17,-2.99,0,*45
1505732650.88,54544,15.69,73662.5,14.33,-8.67,-3.71,0,*40
1505732652.11,54545,15.75,73664.8,14.35,-8.11,-3.47,0,*43
1505732653.33,54546,15.75,73664.3,14.39,-7.95,-3.27,0,*49
1505732654.54,54547,15.75,73664.5,14.39,-8.29,-3.47,0,*46
1505732655.77,54548,15.69,73664.5,14.41,-8.71,-3.75,0,*4A
1505732656.98,54549,15.75,73666.0,14.41,-8.29,-3.39,0,*4E
1505732658.25,54550,15.75,73664.8,14.45,-7.31,-2.55,0,*4F
1505732659.47,54551,15.69,73662.0,14.45,-6.89,-1.79,0,*41
1505732660.71,54552,15.69,73664.0,14.49,-6.63,-1.71,0,*42
1505732661.9,54553,15.75,73664.8,14.53,-6.01,-1.33,0,*4A
1505732663.13,54554,15.69,73662.5,14.53,-6.31,-1.39,0,*44
1505732664.35,54555,15.69,73662.0,14.55,-5.39,-0.41,0,*76
1505732665.62,54556,15.69,73662.0,14.59,-5.85,-0.27,0,*7E
1505732666.87,54557,15.75,73662.3,14.59,-5.81,-0.15,0,*7A
1505732668.1,54558,15.69,73664.0,14.63,-6.19,0.01,0,*66
1505732669.34,54559,15.69,73660.0,14.67,-6.63,-0.41,0,*77
1505732670.57,54560,15.75,73664.8,14.67,-5.97,0.37,0,*59
1505732671.8,54561,15.69,73662.3,14.71,-6.27,0.01,0,*62
1505732673.03,54562,15.75,73662.8,14.77,-7.05,-0.27,0,*7F
1505732674.29,54563,15.75,73664.3,14.79,-6.23,0.71,0,*5B
1505732675.5,54564,15.75,73664.5,14.81,-5.43,1.33,0,*69
1505732676.7,54565,15.69,73658.0,14.85,-5.43,1.29,0,*67
1505732677.93,54566,15.75,73660.5,14.89,-4.93,1.55,0,*6F
1505732679.17,54567,15.75,73662.8,14.91,-5.39,1.37,0,*62
1505732680.4,54568,15.75,73666.3,14.91,-5.43,1.63,0,*61
1505732681.63,54569,15.75,73662.3,14.95,-4.99,1.93,0,*6D
1505732682.89,54570,15.75,73664.5,14.99,-5.19,1.29,0,*61
1505732684.14,54571,15.75,73666.3,14.99,-4.69,0.37,0,*58
1505732685.37,54572,15.75,73664.0,14.99,-2.35,1.89,0,*60
1505732686.57,54573,15.75,73664.5,14.99,-2.91,0.97,0,*51
1505732687.78,54574,15.75,73664.0,15.01,-1.75,1.71,0,*66
1505732689.02,54575,15.75,73664.8,15.03,-1.55,2.05,0,*67
1505732690.26,54576,15.69,73664.0,15.03,0.13,3.19,0,*76
1505732691.45,54577,15.69,73660.0,15.05,1.75,4.41,0,*4A
1505732692.68,54578,15.75,73664.3,15.07,2.81,4.81,0,*43
1505732693.89,54579,15.75,73660.8,15.13,2.35,3.75,0,*44
1505732695.12,54580,15.75,73666.8,15.15,1.75,3.07,0,*46
1505732696.39,54581,15.75,73666.0,15.21,2.05,3.49,0,*4E
1505732697.64,54582,15.75,73666.5,15.21,2.13,3.67,0,*46
1505732698.91,54583,15.75,73666.3,15.25,2.17,3.53,0,*40
1505732700.17,54584,15.75,73664.0,15.25,1.47,2.17,0,*40
1505732701.35,54585,15.75,73664.3,15.27,-2.19,-0.65,0,*7C
1505732702.59,54586,15.69,73660.8,15.27,-2.47,-0.85,0,*7A
1505732703.81,54587,15.75,73666.8,15.27,-3.47,-1.59,0,*4A
1505732705.08,54588,15.75,73664.5,15.25,-4.77,-2.71,0,*4A
1505732706.31,54589,15.75,73666.0,15.23,-3.83,-1.99,0,*44
1505732707.51,54590,15.75,73662.3,15.23,-3.11,-1.33,0,*47
1505732708.73,54591,15.75,73664.8,15.17,-4.13,-1.59,0,*48
1505732709.96,54592,15.75,73666.3,15.17,-1.79,0.83,0,*59
1505732711.21,54593,15.75,73664.8,15.21,0.33,2.73,0,*72
1505732712.44,54594,15.75,73664.0,15.23,1.43,4.01,0,*42
1505732713.67,54595,15.75,73664.8,15.25,1.93,4.11,0,*49
1505732714.93,54596,15.75,73664.5,15.29,1.71,3.37,0,*49
1505732716.13,54597,15.75,73664.3,15.31,1.67,2.65,0,*40
1505732717.31,54598,15.75,73666.8,15.31,0.97,1.83,0,*7A
1505732718.56,54599,15.75,73662.8,15.33,0.87,2.55,0,*70
1505732719.82,54600,15.75,73664.0,15.37,-1.35,1.25,0,*66
1505732721.08,54601,15.75,73668.0,15.37,-1.83,1.51,0,*69
1505732722.28,54602,15.75,73666.3,15.43,-2.27,1.47,0,*63
1505732723.49,54603,15.75,73664.5,15.43,-1.63,2.43,0,*66
1505732724.7,54604,15.69,73660.0,15.47,-2.31,1.59,0,*69
1505732725.91,54605,15.75,73664.5,15.47,-0.69,2.25,0,*5F
1505732727.12,54606,15.75,73666.0,15.47,-0.19,2.43,0,*5B
1505732728.37,54607,15.75,73660.8,15.51,0.29,2.39,0,*7E
1505732729.6,54608,15.75,73664.8,15.51,-0.19,1.55,0,*56
1505732730.88,54609,15.75,73666.3,15.55,-3.63,-1.47,0,*43
1505732732.09,54610,15.75,73664.8,15.53,-3.39,-1.09,0,*48
1505732733.34,54611,15.75,73664.8,15.53,-5.03,-2.11,0,*4C
1505732734.56,54612,15.75,73666.8,15.53,-4.53,-1.35,0,*4E
1505732735.81,54613,15.75,73662.0,15.51,-4.57,-1.39,0,*45
1505732737.07,54614,15.75,73664.8,15.51,-2.67,0.55,0,*51
1505732738.3,54615,15.75,73664.0,15.55,-2.31,0.67,0,*56
1505732739.53,54616,15.75,73664.3,15.53,-2.11,0.63,0,*55
1505732740.74,54617,15.69,73660.5,15.57,-0.93,1.75,0,*5E
1505732741.98,54618,15.75,73664.0,15.59,-1.17,1.51,0,*64
1505732743.24,54619,15.75,73660.3,15.59,-2.03,0.59,0,*5A
1505732744.46,54620,15.75,73664.8,15.63,-4.29,-1.17,0,*41
1505732745.65,54621,15.75,73664.5,15.61,-3.75,-0.61,0,*7C
1505732746.89,54622,15.75,73662.3,15.63,-3.67,-0.53,0,*7F
1505732748.13,54623,15.75,73662.0,15.63,-1.63,1.55,0,*62
1505732749.33,54624,15.75,73662.3,15.69,-1.79,1.37,0,*60
1505732750.57,54625,15.75,73662.0,15.71,-1.29,2.01,0,*6B
1505732751.79,54626,15.75,73664.5,15.75,-2.43,0.79,0,*5E
1505732752.98,54627,15.75,73664.3,15.77,-3.91,-0.69,0,*7F
1505732754.22,54628,15.75,73664.5,15.79,-4.89,-1.55,0,*4E
1505732755.43,54629,15.75,73662.8,15.77,-4.37,-1.09,0,*4D
1505732756.63,54630,15.75,73662.8,15.77,-3.71,-0.57,0,*7A
1505732757.83,54631,15.75,73660.5,15.77,-2.27,0.79,0,*58
1505732759.03,54632,15.75,73662.3,15.81,-3.11,0.09,0,*61
1505732760.27,54633,15.75,73660.5,15.81,-5.31,-2.15,0,*46
1505732761.51,54634,15.69,73658.8,15.79,-6.81,-3.71,0,*4D
1505732762.76,54635,15.69,73660.5,15.79,-8.17,-5.23,0,*4C
1505732763.97,54636,15.75,73660.5,15.71,-8.29,-5.39,0,*41
1505732765.17,54637,15.75,73662.0,15.69,-9.23,-6.43,0,*4C
1505732766.38,54638,15.75,73660.3,15.61,-9.97,-7.31,0,*40
1505732767.6,54639,15.75,73660.8,15.57,-9.45,-7.15,0,*4D
1505732768.83,54640,15.75,73660.3,15.53,-10.57,-8.07,0,*70
1505732770.02,54641,15.75,73664.0,15.49,-9.67,-7.49,0,*44
1505732771.25,54642,15.75,73662.8,15.39,-9.57,-7.39,0,*44
1505732772.52,54643,15.75,73660.5,15.37,-7.35,-5.27,0,*4C
1505732773.72,54644,15.75,73658.3,15.35,-8.67,-6.85,0,*4A
1505732774.97,54645,15.75,73658.3,15.31,-9.15,-7.31,0,*45
1505732776.19,54646,15.75,73656.0,15.27,-8.67,-6.93,0,*4C
1505732777.42,54647,15.75,73658.0,15.27,-9.01,-7.39,0,*4D
1505732778.65,54648,15.75,73658.3,15.23,-9.57,-7.95,0,*43
1505732779.9,54649,15.75,73656.5,15.21,-9.45,-7.87,0,*40
1505732781.1,54650,15.75,73656.5,15.13,-9.01,-7.53,0,*40
1505732782.31,54651,15.75,73656.5,15.09,-9.61,-8.25,0,*42
1505732783.5,54652,15.75,73654.8,15.09,-10.57,-9.23,0,*7B
1505732784.76,54653,15.75,73656.8,15.05,-10.79,-9.53,0,*7D
1505732785.93,54654,15.69,73656.0,15.01,-9.89,-8.55,0,*4E
1505732787.15,54655,15.75,73660.3,14.99,-9.75,-8.63,0,*49
1505732788.35,54656,15.75,73658.5,14.93,-9.71,-8.89,0,*40
1505732789.58,54657,15.75,73658.5,14.91,-10.35,-9.71,0,*7D
1505732790.8,54658,15.75,73656.5,14.87,-10.31,-9.89,0,*76
1505732792.07,54659,15.75,73662.0,14.83,-10.63,-10.35,0,*4B
1505732793.3,54660,15.75,73660.8,14.79,-10.97,-10.85,0,*44
1505732794.57,54661,15.75,73658.0,14.75,-11.73,-11.77,0,*4E
1505732795.85,54662,15.75,73656.5,14.71,-11.77,-11.93,0,*47
1505732797.08,54663,15.75,73656.0,14.65,-11.81,-12.21,0,*40
1505732798.34,54664,15.75,73656.5,14.61,-11.93,-12.35,0,*45
1505732799.61,54665,15.75,73656.8,14.59,-12.79,-13.19,0,*47
1505732800.86,54666,15.75,73662.0,14.53,-12.83,-12.53,0,*44
1505732802.07,54667,15.75,73662.3,14.47,-13.19,-12.93,0,*4E
1505732803.28,54668,15.75,73662.8,14.43,-13.19,-13.51,0,*4A
1505732804.51,54669,15.75,73658.5,14.39,-13.93,-14.55,0,*47
1505732805.73,54670,15.75,73658.5,14.35,-14.75,-14.69,0,*43
1505732806.98,54671,15.75,73660.5,14.27,-15.01,-13.97,0,*45
1505732808.24,54672,15.75,73662.3,14.25,-15.49,-13.97,0,*48
1505732809.47,54673,15.75,73660.0,14.17,-16.37,-14.51,0,*4F
1505732810.69,54674,15.75,73662.0,14.13,-18.89,-16.93,0,*4B
1505732811.91,54675,15.75,73660.5,14.03,-19.91,-18.65,0,*44
1505732813.15,54676,15.75,73658.3,13.95,-19.13,-18.45,0,*47
1505732814.43,54677,15.75,73656.5,13.91,-18.55,-17.55,0,*4F
1505732815.69,54678,15.75,73662.3,13.87,-18.31,-17.11,0,*45
1505732816.94,54679,15.75,73656.8,13.81,-18.45,-17.17,0,*47
1505732818.2,54680,15.75,73658.0,13.77,-18.17,-16.69,0,*47
1505732819.49,54681,15.75,73658.0,13.73,-17.79,-15.81,0,*40
1505732820.75,54682,15.75,73658.5,13.75,-17.45,-15.43,0,*44
1505732822.01,54683,15.75,73660.8,13.69,-18.21,-16.13,0,*43
1505732823.28,54684,15.69,73662.8,13.65,-17.93,-15.49,0,*42
1505732824.5,54685,15.75,73664.3,13.59,-19.17,-16.75,0,*42
1505732825.75,54686,15.75,73664.8,13.55,-19.03,-16.09,0,*43
1505732826.97,54687,15.75,73660.5,13.49,-19.13,-15.71,0,*42
1505732828.26,54688,15.75,73658.0,13.47,-19.61,-16.09,0,*4A
1505732829.51,54689,15.75,73658.0,13.43,-19.99,-16.65,0,*42
1505732830.76,54690,15.75,73656.8,13.37,-19.85,-16.17,0,*41
1505732831.99,54691,15.75,73660.3,13.35,-19.47,-15.63,0,*4C
1505732833.2,54692,15.75,73658.0,13.29,-19.75,-15.71,0,*40
1505732834.45,54693,15.75,73658.8,13.25,-20.15,-15.81,0,*4E
1505732835.7,54694,15.75,73658.5,13.21,-19.41,-14.69,0,*41
1505732836.95,54695,15.75,73656.8,13.17,-18.89,-14.29,0,*44
1505732838.18,54696,15.75,73660.0,13.17,-18.45,-14.23,0,*4D
1505732839.44,54697,15.75,73662.8,13.11,-17.45,-13.61,0,*44
1505732840.65,54698,15.75,73664.8,13.07,-16.59,-13.11,0,*47
1505732841.88,54699,15.75,73666.0,13.03,-16.31,-13.19,0,*44
1505732843.09,54700,15.75,73664.3,12.99,-16.75,-13.93,0,*45
1505732844.32,54701,15.75,73660.3,12.95,-18.89,-15.63,0,*4C
1505732845.58,54702,15.75,73664.8,12.89,-21.23,-18.01,0,*41
1505732846.83,54703,15.75,73666.0,12.83,-21.53,-17.73,0,*47
1505732848.04,54704,15.75,73666.0,12.77,-20.39,-16.41,0,*46
1505732849.29,54705,15.75,73664.3,12.73,-18.89,-15.01,0,*44
1505732850.53,54706,15.75,73664.3,12.65,-17.97,-14.23,0,*41
1505732851.78,54707,15.75,73666.0,12.63,-17.55,-14.11,0,*49
1505732853.02,54708,15.75,73662.0,12.59,-17.07,-13.19,0,*47
1505732854.25,54709,15.75,73662.5,12.59,-15.63,-11.55,0,*4C
1505732855.5,54710,15.75,73660.3,12.55,-15.39,-12.07,0,*43
1505732856.76,54711,15.75,73660.3,12.51,-16.17,-13.29,0,*44
1505732857.99,54712,15.75,73664.0,12.45,-17.73,-14.23,0,*4C
1505732859.24,54713,15.75,73664.0,12.43,-18.55,-14.43,0,*46
1505732860.52,54714,15.75,73664.0,12.37,-17.97,-13.61,0,*44
1505732861.76,54715,15.75,73660.8,12.37,-16.83,-12.89,0,*46
1505732862.99,54716,15.75,73662.8,12.33,-16.75,-14.15,0,*4B
1505732864.23,54717,15.75,73662.0,12.29,-18.41,-16.03,0,*4D
1505732865.45,54718,15.75,73662.3,12.23,-22.07,-18.31,0,*4C
1505732866.69,54719,15.75,73660.0,12.19,-23.23,-17.83,0,*45
1505732867.92,54720,15.75,73660.0,12.15,-22.53,-16.65,0,*4C
1505732869.15,54721,15.75,73662.3,12.11,-24.35,-17.93,0,*47
1505732870.39,54722,15.75,73658.3,12.11,-23.03,-16.41,0,*48
1505732871.64,54723,15.75,73660.0,12.05,-20.83,-14.19,0,*48
1505732872.87,54724,15.75,73660.3,12.01,-18.41,-13.69,0,*4E
1505732874.12,54725,15.75,73662.5,12.01,-14.79,-11.23,0,*44
1505732875.38,54726,15.75,73662.8,12.01,-11.15,-7.61,0,*79
1505732876.63,54727,15.75,73662.3,12.09,-10.19,-7.27,0,*7F
1505732877.86,54728,15.75,73666.8,12.13,-13.69,-10.49,0,*41
1505732879.11,54729,15.75,73666.3,12.13,-15.11,-11.73,0,*41
1505732880.37,54730,15.75,73660.8,12.15,-17.11,-12.75,0,*48
1505732881.57,54731,15.75,73664.5,12.15,-15.63,-11.11,0,*4F
1505732882.8,54732,15.75,73662.3,12.15,-14.05,-9.89,0,*75
1505732884.06,54733,15.75,73660.5,12.17,-15.57,-12.43,0,*4C
1505732885.26,54734,15.75,73664.0,12.19,-19.03,-15.67,0,*49
1505732886.47,54735,15.75,73662.8,12.15,-19.75,-15.49,0,*49
1505732887.73,54736,15.75,73664.0,12.15,-20.15,-15.85,0,*46
1505732888.96,54737,15.75,73662.0,12.13,-22.37,-17.83,0,*47
1505732890.17,54738,15.75,73660.0,12.11,-22.41,-17.83,0,*4B
1505732891.41,54739,15.75,73662.3,12.07,-22.17,-17.83,0,*4E
1505732892.66,54740,15.75,73660.0,12.05,-18.73,-14.79,0,*4F
1505732893.92,54741,15.75,73662.8,12.09,-17.87,-14.05,0,*4D
1505732895.15,54742,15.75,73664.8,12.07,-18.31,-14.61,0,*40
1505732896.38,54743,15.75,73662.5,12.07,-18.73,-15.43,0,*46
1505732897.64,54744,15.75,73660.0,12.09,-18.73,-15.89,0,*49
1505732898.87,54745,15.75,73666.5,12.09,-18.25,-15.75,0,*48
1505732900.13,54746,15.75,73662.5,12.11,-17.07,-14.83,0,*45
1505732901.39,54747,15.75,73662.0,12.13,-14.83,-12.29,0,*4F
1505732902.65,54748,15.75,73662.0,12.13,-14.11,-12.53,0,*46